Regional Weather Roundup
Issued by NWS

Home | Current Version | Previous Version | Graphics & Text | Print | Product List | Glossary Off
Versions: 1 2 3 4 5 6 7 8 9 10 11 12 13 14 15 16 17 18 19 20 21 22 23 24 25 26 27 28 29 30 31 32 33 34 35 36 37 38 39 40 41 42 43 44 45 46 47 48 49 50

000
ASUS43 KMKX 240821
RWRWI

WISCONSIN REGIONAL WEATHER ROUNDUP
NATIONAL WEATHER SERVICE MILWAUKEE/SULLIVAN WI
300 AM CDT FRI MAR 24 2017

NOTE: "FAIR" INDICATES FEW OR NO CLOUDS BELOW 12,000 FEET WITH NO
SIGNIFICANT WEATHER AND/OR OBSTRUCTIONS TO VISIBILITY.

WIZ001-002-006>008-014>016-023>028-240900-
NORTHWEST WISCONSIN

CITY           SKY/WX    TMP DP  RH WIND       PRES   REMARKS
SUPERIOR ARPT  CLOUDY    32  32 100 CALM      29.94R FOG
ASHLAND        FOG       32  32 100 CALM      29.93R VSB 1/2
HAYWARD        CLOUDY    35  31  85 NE3       29.88F FOG
SIREN          CLOUDY    34  33  98 NE6       29.88F FOG     WCI  28
CUMBERLAND     FOG       34  34 100 E3        29.85F VSB 1/2
RICE LAKE      CLOUDY    36  36  99 CALM      29.87F FOG
CHETEK         CLOUDY    36  36 100 CALM      29.86F FOG
LADYSMITH      DRIZZLE   35  35  97 NE3       29.88S
EAU CLAIRE     CLOUDY    38  38 100 S3        29.87S FOG
MENOMONIE      CLOUDY    38  37  94 SE5       29.87R FOG     WCI  35
NEW RICHMOND   CLOUDY    37  37 100 E5        29.83F FOG     WCI  33
OSCEOLA        CLOUDY    37  37 100 CALM      29.87F FOG
$$

WIZ003>005-009-010-017-018-240900-
NORTH CENTRAL WISCONSIN

CITY           SKY/WX    TMP DP  RH WIND       PRES   REMARKS
MANITOWISH WTR HVY RAIN  32  32 100 CALM      29.86F
ARBOR VITAE    CLOUDY    34  32  93 CALM      29.86F FOG
WOODRUFF       CLOUDY    34  32  93 CALM      29.86F FOG
RHINELANDER    CLOUDY    33  31  92 CALM      29.86F FOG
EAGLE RIVER    LGT SNOW  32  31  97 CALM      29.86F
LAND O LAKES   LGT SNOW  32  32  99 S3        29.88F
PHILLIPS       CLOUDY    34  32  94 CALM      29.86F
TOMAHAWK       CLOUDY    32  31  96 CALM      29.86F FOG
MEDFORD        DRIZZLE   34  33  98 CALM      29.86S
MERRILL        DRIZZLE   33  33 100 CALM      29.87F
$$

WIZ029-030-035-036-043>047-240900-
CENTRAL WISCONSIN

CITY           SKY/WX    TMP DP  RH WIND       PRES   REMARKS
WAUSAU         CLOUDY    34  34 100 E3        29.86S FOG
MOSINEE        DRIZZLE   34  34 100 CALM      29.87F
MARSHFIELD     CLOUDY    36  33  89 NE6       29.85F WCI  31
STEVENS POINT  CLOUDY    35  35 100 NE5       29.88F FOG     WCI  31
WAUPACA        MIX PCPN  38  35  88 CALM      29.90F
WAUTOMA        LGT RAIN  39  37  92 NE6       29.87F WCI  35
WISC RAPIDS    LGT RAIN  39  36  89 NE3       29.87F
CAMP DOUGLAS   CLOUDY    38  35  90 CALM      29.85F
$$

WIZ011>013-019>022-031-037>040-048>050-240900-
NORTHEAST WISCONSIN

CITY           SKY/WX    TMP DP  RH WIND       PRES   REMARKS
ANTIGO         MIX PCPN  32  32 100 CALM      29.87F
SHAWANO        RAIN      36  33  89 NE3       29.91F
OCONTO         CLOUDY    35  32  88 CALM      29.92S
STURGEON BAY   CLOUDY    37  34  89 SE5       29.93F WCI  33
GREEN BAY      RAIN      37  35  92 N5        29.91F FOG     WCI  33
MANITOWOC      LGT RAIN  38  35  89 CALM      29.92F
APPLETON       LGT RAIN  37  34  87 CALM      29.88F
CLINTONVILLE   LGT RAIN  34  32  93 CALM      29.90F
OSHKOSH        CLOUDY    38  35  89 CALM      29.88F
$$

WIZ032>034-041-042-053>061-240900-
SOUTHWEST WISCONSIN

CITY           SKY/WX    TMP DP  RH WIND       PRES   REMARKS
LA CROSSE      LGT RAIN  41  39  93 N7        29.85R
SPARTA         RAIN      39  38  97 E3        29.84F
VIROQUA        CLOUDY    41  38  88 S10G16    29.81F
BOSCOBEL       CLOUDY    44  37  76 CALM      29.85F
PRAIRIE DU CHI CLOUDY    42  36  78 E7        29.82F
PLATTEVILLE    CLOUDY    43  39  85 SE9       29.85F
$$

WIZ056-057-062-063-064-067-068-240900-
SOUTH CENTRAL WISCONSIN

CITY           SKY/WX    TMP DP  RH WIND       PRES   REMARKS
REEDSBURG      CLOUDY    42  37  84 S6        29.83F
BARABOO/DELLS  CLOUDY    43  36  75 S15       29.82F
LONE ROCK      CLOUDY    41  36  82 NE6       29.85F
MINERAL POINT  CLOUDY    43  39  87 SE13      29.84F
MADISON        CLOUDY    44  36  73 S9        29.86F
MIDDLETON      CLOUDY    44  37  75 S7        29.86F
WATERTOWN      CLOUDY    44  37  77 SW8       29.88F
MONROE         CLOUDY    43  37  81 S9        29.88F
JANESVILLE     CLOUDY    46  36  66 S10       29.89F
$$

WIZ051-052-058>065-066-070>072-240900-
SOUTHEAST WISCONSIN

CITY           SKY/WX    TMP DP  RH WIND       PRES   REMARKS
MILWAUKEE      CLOUDY    48  36  63 SW10      29.90F
WAUKESHA       MOCLDY    45  36  70 S7        29.90F
MILWAUKEE/TIMM CLOUDY    45  34  65 SW6       29.90F
RACINE         CLOUDY    48  36  63 SW14G22   29.92S
KENOSHA        PTCLDY    48  36  63 SW15      29.91S
FOND DU LAC    MOCLDY    39  35  86 CALM      29.88F
SHEBOYGAN      MOCLDY    36  34  92 SE5       29.89F FOG     WCI  32
WEST BEND      CLOUDY    41  36  81 CALM      29.89F
JUNEAU         MOCLDY    42  36  77 S7        29.88F
$$

LSZ147-162-240900-
LAKE SUPERIOR

STATION/POSITION TIME  TEMP    WIND        PRES    WAVE
                       AIR SEA DIR/SP/G            HT/PER
                 (UTC) (F)     (DEG/KT/KT) (MB)    (FT/S)
DEVILS ISLAND    0800   33     200/  1/  2 1014.2S
PORT WING        0740   33     250/  1/  1 1013.9S
SAXON HARBOR     0730   33      CALM  /  2 1012.5F
$$

LMZ867-665-643>646-240900-
LAKE MICHIGAN

STATION/POSITION TIME  TEMP    WIND        PRES    WAVE
                       AIR SEA DIR/SP/G            HT/PER
                 (UTC) (F)     (DEG/KT/KT) (MB)    (FT/S)
CHAMBERS ISLAND  0740   36     130/  4/  6 1012.9F
NORTHPORT PIER   0740   35     150/  2/  4 1013.9F
SISTER BAY       0636   37        CALM       N/A
KEWAUNEE LAKESHO 0754   38      CALM  /  1 1012.7F
SHEBOYGAN LAKESH 0800   39     160/ 12/ 12 1012.3F
PORT WASHINGTON  0730   39     180/  2/  2 1013.9F
MILWAUKEE LAKESH 0800   47     190/  8/ 10   N/A
KENOSHA   LAKESH 0800   49     200/ 14/ 20 1013.2
$$

TC  - TEMPERATURE IN CELSIUS
VSB - VISIBILITY IN STATUTE MILES
WCI - WIND CHILL INDEX
HX  - HEAT INDEX




USA.gov is the U.S. government's official web portal to all federal, state and local government web resources and services.